User: anonymous   Login
Location: Unspecified
(0.0000°N, 0.0000°E)
Time: 17:13:55
(UTC+02:00)
Language:

ARIANE 5 R/B - Orbit

View from above orbital plane
View from above orbital plane
View from above satellite
View from above satellite

Ground track
Ground track

The orbit data is extracted from the following two-line orbital elements,

1 28886U 05041C   15180.17397503 -.00000052  00000-0 -89560-3 0  9992
2 28886 008.0038 276.9478 7175119 282.1287 008.8209 02.24320405 79585
Epoch (UTC): 29 June 2015 04:10:31
Eccentricity: 0.7175119
inclination: 8.0038°
perigee height: 585 km
apogee height: 35959 km
right ascension of ascending node: 276.9478°
argument of perigee: 282.1287°
revolutions per day: 2.24320405
mean anomaly at epoch: 8.8209°
orbit number at epoch: 7958

The dashed part of the orbit path shows where the satellite is in the earth's shadow,  

DLR